Regional Weather Roundup
Issued by NWS

Home | Current Version | Previous Version | Graphics & Text | Print | Product List | Glossary On
Versions: 1 2 3 4 5 6 7 8 9 10 11 12 13 14 15 16 17 18 19 20 21 22 23 24 25 26 27 28 29 30 31 32 33 34 35 36 37 38 39 40 41 42 43 44 45 46 47 48 49 50
000
ASUS45 KTFX 280419
RWRMT
MONTANA HOURLY WEATHER ROUNDUP
NATIONAL WEATHER SERVICE GREAT FALLS MT
919 PM MST SAT DEC 27 2014

NOTE: "FAIR" INDICATES FEW OR NO CLOUDS BELOW 12000 FEET WITH NO
SIGNIFICANT WEATHER AND/OR OBSTRUCTIONS TO VISIBILITY.

* THESE STATIONS ARE NOT UNDER NWS QUALITY CONTROL. THEY DO NOT
   REPORT WEATHER SUCH AS PRECIPITATION OR FOG.

MTZ001>007-043-280500-
WEST OF THE DIVIDE
CITY           SKY/WX    TMP DP  RH WIND       PRES   REMARKS
KALISPELL      LGT SNOW  28  28 100 S10       29.85F VSB 3/4  WCI  19
MISSOULA       CLOUDY    30  25  82 SE17      29.91F WCI  18
BUTTE          MOCLDY    21  12  68 SW8       29.88F WCI  11
MULLAN PASS    LGT SNOW  23  19  85 VRB7      29.75F VSB 1 1/2 WCI  15
* ESSEX        N/A       24  23  96 N/A        N/A
* HAMILTON APT MOCLDY    28  23  81 S14       29.91F WCI  17
* LIBBY APT    CLOUDY    27  25  92 CALM      29.85F VSB 2 1/2
* LINCOLN      N/A       24  21  88 S2         N/A
* LOOKOUT PASS N/A       25  24  96 E2         N/A
* POLSON       N/A       27  26  96 N1         N/A
* RONAN APT    CLOUDY    30  28  92 SW5        N/A   WCI  25
* SEELEY LAKE  N/A       25  23  92 N/A        N/A
* THOMP F APT  CLOUDY    11   6  80 E7         N/A
$$

MTZ008-052>055-280500-
SOUTHWEST MONTANA
CITY           SKY/WX    TMP DP  RH WIND       PRES   REMARKS
BOZEMAN        CLOUDY    19  16  88 SE5       29.92F WCI  12
DILLON         CLOUDY    19  10  68 VRB3      29.94F
* W YELLOWSTON MOCLDY    11   7  84 NE1G8      N/A
* THREE FORKS  MOCLDY    27  23  85 SW10G29    N/A   WCI  18
* TWIN BRIDGES MOCLDY    23  10  57 S14        N/A   WCI  10
* BOULDER HILL N/A       20   9  62 S20        N/A   WCI   4
* MONIDA PASS  N/A        8   6  91 SE25G31    N/A   WCI -13
* RAYNOLDS PAS N/A       11  -2  55 S20G27     N/A   WCI  -8
* WHITEHALL    N/A       27  13  55 W12G25     N/A   WCI  16
* WISE RIVER   N/A       19  11  71 W11G18     N/A   WCI   7
$$

MTZ009>010-012-014-046-048-049-054-280500-
EAST SLOPES AND CENTRAL MONTANA
CITY           SKY/WX    TMP DP  RH WIND       PRES   REMARKS
CUT BANK       LGT SNOW  27  21  78 E5        29.80S VSB 1 1/4 WCI  21
GREAT FALLS    CLOUDY    28  19  69 S12       29.83F WCI  18
HELENA         CLOUDY    21  16  81 CALM      29.90F
MALMSTROM AFB  CLOUDY    28  23  81 SW10      29.86F WCI  19
* CONRAD       CLOUDY    25  21  85 CALM       N/A
* EAST GLACIER N/A       24  18  78 W17G23     N/A   WCI  11
* MONARCH      N/A       23  11  60 SW12       N/A   WCI  11
* PENDROY      N/A       25  19  78 SE5        N/A   WCI  19
* SWEET GRASS  N/A       22  18  85 N/A        N/A
* WHITE SULPH  N/A       24  13  63 S17G22     N/A   WCI  11
$$

MTZ011-013-016-021-035-040-045-047-050-051-280500-
NORTH CENTRAL MONTANA
CITY           SKY/WX    TMP DP  RH WIND       PRES   REMARKS
HAVRE          CLEAR     19  16  88 CALM      29.87F
LEWISTOWN      MOCLDY    21  12  68 VRB5      29.86F WCI  14
* N BAR RANCH  PTCLDY    16  10  77 W5        29.87F WCI   8
* CHINOOK      CLEAR     19  16  88 E3        29.90F
* MALTA APT    PTCLDY    18  10  71 N/A        N/A
* CHESTER      N/A       17  14  88 N/A        N/A
* DENTON       N/A       20  11  68 S9         N/A   WCI  10
* JUDITH GAP   N/A       21  13  71 W9G14      N/A   WCI  11
* LOMA         N/A       24  19  81 E1         N/A
$$

MTZ017>020-022>027-061-062-280500-
NORTHEAST MONTANA
CITY           SKY/WX    TMP DP  RH WIND       PRES   REMARKS
GLASGOW        CLOUDY    25  18  75 W5        29.93S WCI  19
GLENDIVE       PTCLDY    18  16  92 S6        29.96F WCI  10
JORDAN         PTCLDY    21  18  88 SE3       29.93S
SIDNEY         CLOUDY    21  18  88 CALM      30.00S
WOLF POINT     CLOUDY    21  18  88 NE7       29.97S WCI  12
* BEAVER HILL  N/A       20  15  81 S12        N/A   WCI   8
* CIRCLE       N/A       23  20  88 N/A        N/A
* LINDSAY DVD  N/A       23  18  81 SW8        N/A   WCI  14
* NAVAJO       N/A       14  12  92 E6         N/A   WCI   5
* PLENTYWOOD A PTCLDY    16  10  77 E10       30.00R WCI   4
* POPLAR APT   MOCLDY    19  16  88 NE10G22    N/A   WCI   8
* SACO         N/A       23  19  85 S1         N/A
* SCOBEY APT   PTCLDY    14   7  73 E8         N/A   WCI   3
$$

MTZ028>042-056>058-280500-
SOUTHCENTRAL AND SOUTHEAST MONTANA
CITY           SKY/WX    TMP DP  RH WIND       PRES   REMARKS
BAKER          MOCLDY    23  18  81 SW12      29.96F WCI  11
BILLINGS       PTCLDY    21  10  62 SW20      29.93F WCI   6
LIVINGSTON     CLOUDY    27  10  49 SW35G53   29.89F WCI  10
MILES CITY     PTCLDY    21  18  88 SE5       29.96F WCI  14
* BIG TIMBER A MOCLDY    27  10  49 W23G29    29.88F WCI  13
* FORSYTH APT  PTCLDY    27  18  69 SW3       29.97S
* LAUREL APT   PTCLDY    18   7  62 SW6        N/A   WCI  10
* ROUNDUP APT  PTCLDY    27  12  53 S5         N/A   WCI  21
* ALZADA       N/A       16  11  81 W1         N/A
* REED POINT   N/A       18  11  74 NE2G9      N/A
* ROSCOE HILL  N/A       26  -2  29 SW6G14     N/A   WCI  19
$$

REGIONAL REPORTS...DAKOTAS
CITY           SKY/WX    TMP DP  RH WIND       PRES   REMARKS
WILLISTON      CLOUDY    19  16  88 NE7       30.01S WCI  10
DICKINSON      CLOUDY    23  16  74 W6        29.95S WCI  16
BEACH          CLOUDY    18  18 100 SW7       29.96F WCI   9
CROSBY         LGT SNOW  14  10  84 NE10      30.05R WCI   1
WATFORD CITY   LGT SNOW  21  19  92 E3        29.97F
BISMARCK       CLOUDY    14  10  84 CALM      30.04S
GRAND FORKS    LGT SNOW  12   7  80 N13       30.09R WCI  -3
FARGO          CLOUDY    25  19  78 SW7       30.04R WCI  17
BUFFALO SD     MOCLDY    21  16  81 W8        29.90F WCI  11
RAPID CITY     CLEAR     10   7  88 W5        30.02F WCI   1
$$

REGIONAL REPORTS...WYOMING/IDAHO/WASHINGTON
CITY           SKY/WX    TMP DP  RH WIND       PRES   REMARKS
GILLETTE       PTCLDY    18   3  52 S13       29.97S WCI   5
SHERIDAN       MOCLDY    12   5  73 CALM      29.95F
CODY           PTCLDY    27   9  46 SW17G32   29.91F WCI  14
YELLOWSTONE LA PTCLDY    10   7  88 CALM      30.00F
SALMON         CLOUDY    19  18  96 CALM      30.04F
MULLAN PASS    LGT SNOW  23  19  85 VRB7      29.75S VSB 1 1/2 WCI  15
SAND POINT     LGT SNOW  32  32 100 CALM      29.87F VSB 1 1/4
SPOKANE        LGT SNOW  34  32  92 SW18      29.83F WCI  23
$$

REGIONAL REPORTS...ALBERTA
CITY           SKY/WX    TMP DP  RH WIND       PRES   REMARKS
CALGARY        CLOUDY    21  14  74 NE8       29.84R WCI  11
LETHBRIDGE     LGT SNOW  28  27  96 SW9       29.81S WCI  19
MEDICINE HAT   CLEAR     16  14  92 NE6       29.87S WCI   7
EDMONTON       LGT SNOW  14  10  84 N8        29.99R VSB 2 1/2 WCI   3
WATERTON GATE  N/A       27  21  78 SW14       N/A   WCI  16
CARDSTON       N/A       27  23  85 E1         N/A
MILK RIVER     N/A       23  18  81 SE6        N/A   WCI  16
$$

REGIONAL REPORTS...SASKATCHEWAN
CITY           SKY/WX    TMP DP  RH WIND       PRES   REMARKS
SWIFT CURRENT  FOG       16  14  92 SE8       29.93R WCI   5
REGINA         MOCLDY     5  -4  66 E7        30.07R WCI  -7
VAL MARIE      N/A        5   3  91 NE3        N/A
ASSINIBOIA     N/A       12  10  92 E13        N/A   WCI  -3

$$



USA.gov is the U.S. government's official web portal to all federal, state and local government web resources and services.